AirNav   ProFlight Series 2 Aviation Headset
 
 1056 users online  

2MU1 Saint Louis Children's Hospital Heliport
Saint Louis, Missouri, USA

GOING TO SAINT LOUIS?


FAA INFORMATION EFFECTIVE 08 OCTOBER 2020

Location

FAA Identifier: 2MU1
Lat/Long: 38-38-16.7000N 090-15-53.6500W
38-38.278333N 090-15.894167W
38.6379722,-90.2649028
(estimated)
Elevation: 610 ft. / 186 m (estimated)
Variation: 01E (1995)
Time zone: UTC -5 (UTC -6 during Standard Time)
Zip code: 63110

Heliport Operations

Heliport use: Private use, MEDICAL USE.
Activation date: 07/1997
Control tower: no
ARTCC: KANSAS CITY CENTER
FSS: SAINT LOUIS FLIGHT SERVICE STATION
Attendance: ON CALL
Wind indicator: yes
Segmented circle: no
Lights: FOR PERIMETER LGTS CALL 417-434-6000.

Heliport Communications

WX ASOS at CPS (7 nm SE): PHONE 618-332-0001
WX ASOS at STL (8 nm NW): 125.025 (314-890-4790)
WX ASOS at SUS (18 nm W): 134.8 (314-890-7255)
WX AWOS-3 at ALN (18 nm NE): 128.0 (618-259-7231)
WX ASOS at SET (19 nm NW): 118.075 (636-250-4590)

Nearby radio navigation aids

VOR radial/distance  VOR name  Freq  Var
STLr142/16.8ST LOUIS VORTAC117.4001E
TOYr245/17.3TROY VORTAC116.0004E
FTZr091/33.3FORISTELL VORTAC110.8005E

 
NDB name  Hdg/Dist  Freq  Var  ID
ACORE306/12.035000ECP -.-. .--.
EAVES101/13.422701WFZ ..-. --..
CIVIC MEMORIAL214/18.126301WCVM -.-. ...- --

Heliport Services

Runway Information

Helipad H1

Dimensions: 60 x 60 ft. / 18 x 18 m
Surface: concrete
Runway edge lights: PERI
Latitude: 38-38.278333N
Longitude: 090-15.894167W
Elevation: 610.0 ft.
Traffic pattern: leftleft

Heliport Ownership and Management from official FAA records

Ownership: Privately-owned
Owner: SAINT LOUIS CHILDREN'S HOSP.
1 CHILDREN'S PLACE
SAINT LOUIS, MO 63110-1077
Phone 314-454-6000
Manager: FACILITIES MANAGER
1 CHILDREN'S PLACE
SAINT LOUIS, MO 63110-1077
Phone 314-454-6000

Additional Remarks

ROOFTOP.
OWNER DESIRES HELIPORT NOT BE CHARTED.
FOR CD CTC ST LOUIS APCH AT 314-890-1018.

Instrument Procedures

There are no published instrument procedures at 2MU1.

Some nearby airports with instrument procedures:

KCPS - St Louis Downtown Airport (7 nm SE)
KSTL - St Louis Lambert International Airport (8 nm NW)
1H0 - Creve Coeur Airport (13 nm NW)
KSUS - Spirit of St Louis Airport (18 nm W)
KALN - St Louis Regional Airport (18 nm NE)
KSET - St Charles County Smartt Airport (19 nm NW)
 
Loc | Ops | Rwys | IFR | FBO | Links
Com | Nav | Svcs | Stats | Notes
Area around 2MU1 (Saint Louis Children's Hospital Heliport)
 
Road maps at: MapQuest Bing Google
 
Aerial photo
No photo
 
Sectional chart

 
Airport distance calculator
Flying to Saint Louis Children's Hospital Heliport? Find the distance to fly.

From to 2MU1

Sunrise and sunset
Times for 31-Oct-2020
 Local
(UTC-5)
 Zulu
(UTC)
Morning civil twilight07:0112:01
Sunrise07:2912:29
Sunset18:0123:01
Evening civil twilight18:2823:28

Current date and time
Zulu (UTC)  31-Oct-2020 18:32:39
Local (UTC-5)  31-Oct-2020 13:32:39
 
METAR
KCPS 
7nm SE 
311753Z 16011KT 10SM CLR 14/04 A3019 RMK AO2 SLP225 T01440039 10150 20028 58032
KSTL 
8nm NW 
311751Z 17014KT 10SM FEW250 16/03 A3017 RMK AO2 SLP219 T01560033 10161 20061 58032
KSUS 
18nm W 
311754Z 19006G14KT 10SM CLR 16/03 A3016 RMK AO2 SLP215 T01610033 10161 20006 58033
KALN 
18nm NE 
311748Z 15012KT 10SM CLR 15/05 A3018
KSET 
19nm NW 
311754Z AUTO 16011KT 10SM CLR 16/04 A3016 RMK AO2 SLP212 T01610039 10167 20022 58037
TAF
KCPS 
7nm SE 
311726Z 3118/0118 16012KT P6SM FEW250 FM010200 20008KT P6SM SCT250 FM010400 23010G20KT P6SM BKN250 FM010800 30012G22KT P6SM FEW250
KSTL 
8nm NW 
311726Z 3118/0124 16010G18KT P6SM FEW250 FM312200 17010KT P6SM FEW250 FM010200 20008KT P6SM SCT250 FM010400 23010G20KT P6SM BKN250 FM010800 30012G22KT P6SM FEW250
KSUS 
18nm W 
311726Z 3118/0118 17009KT P6SM SKC FM311900 17010G20KT P6SM FEW250 FM312200 18009KT P6SM FEW250 FM010200 21006KT P6SM SCT250 FM010400 23010G20KT P6SM BKN250 FM010800 30011G21KT P6SM FEW250
NOTAMs
Click for the latest NOTAMs
NOTAMs are issued by the DoD/FAA and will open in a separate window not controlled by AirNav.

 

 
 

Would you like to see your business listed on this page?

 If your business provides an interesting product or service to pilots, flight crews, aircraft, or users of the Saint Louis Children's Hospital Heliport, you should consider listing it here.  To start the listing process, click on the button below
 
Add a business
 

Other Pages about Saint Louis Children's Hospital Heliport

Update a link
 
Copyright © AirNav, LLC. All rights reserved. Privacy Policy  Contact